Content
SEND FEEDBACK

Daily
Averages
Monthly
Summary
United States of America

NEW YORK - CENTRAL PARK, NEW YORK


Home > North America > United States > New York
Elevation: 14 feet     Latitude: 40 47N     Longitude: 073 58W

WEATHER
 
SELECT A DAY
Number of Records: 150,546;   Date Range: 11/1/95 - 9/30/14
 
SHARE

PRINT THIS DATA

[ ← Previous Day ]
WEATHER ALMANAC - MAY 14, 2013
[ Next Day → ]
[ °C ]   °F
Weather ElementAverageHighLow
Temperature52.6 °F60.1 °F (1:51 pm)42.1 °F (5:51 am)
Dewpoint25.9 °F33.1 °F (2:51 am)18 °F (3:51 pm)
Humidity38.8 %68 % (3:51 am)20 % (3:51 pm)
Barometer30.08 in30.13 in (7:51 am)30.03 in (4:51 pm)
Wind Speed4.4 mph9.2 mph (1:51 am)
Weather ElementAverage
Visibility10 mi
Wind DirectionENE (60.9 °)

Weather ElementTotal
Precipitation---
Heating Degree Days13.9 (Base 65)
Growing Degree Days1.1 (Base 50)
Averaged from 23 records on May 14, 2013
WEATHER CONDITIONS BREAKOUT
WIND DIRECTION BREAKOUT
WEATHER BY HOUR - MAY 14, 2013
[ °C ]   °F
Local TimeTemperatureDewpointHumidityBarometerVisibilityWind DirectionWind SpeedGust SpeedPrecipitationEventsConditions
1:51 AM45.0 °F32.0 °F60 %30.11 in10.0 miWNW (300°)9.2 mphClear
2:51 AM44.1 °F33.1 °F65 %30.11 in10.0 miVariable3.5 mphClear
3:51 AM43.0 °F33.1 °F68 %30.11 in10.0 miVariable5.8 mphClear
4:51 AM43.0 °F30.9 °F62 %30.11 in10.0 miVariable4.6 mphClear
5:51 AM42.1 °F30.0 °F62 %30.11 in10.0 miVariable6.9 mphClear
6:51 AM43.0 °F30.0 °F60 %30.12 in10.0 miVariable3.5 mphClear
7:51 AM45.0 °F30.0 °F56 %30.13 in10.0 miCalmClear
8:51 AM48.9 °F30.0 °F48 %30.13 in10.0 miVariable4.6 mphClear
9:51 AM51.1 °F28.0 °F41 %30.12 in10.0 miVariable3.5 mphClear
10:51 AM53.1 °F24.1 °F32 %30.12 in10.0 miVariable3.5 mphClear
11:51 AM57.0 °F26.1 °F30 %30.10 in10.0 miNorthClear
12:51 PM59.0 °F25.0 °F27 %30.09 in10.0 miVariable4.6 mphClear
1:51 PM60.1 °F26.1 °F27 %30.09 in10.0 miVariable4.6 mphClear
2:51 PM59.0 °F26.1 °F28 %30.06 in10.0 miVariable6.9 mphPartly Cloudy
3:51 PM59.0 °F18.0 °F20 %30.05 in10.0 miVariable6.9 mphClear
4:51 PM60.1 °F21.0 °F22 %30.03 in10.0 miCalmClear
5:51 PM60.1 °F21.0 °F22 %30.03 in10.0 miVariable4.6 mphClear
6:51 PM59.0 °F19.0 °F21 %30.03 in10.0 miWest (280°)8.1 mphClear
7:51 PM57.9 °F19.0 °F22 %30.03 in10.0 miWest (280°)3.5 mphClear
8:51 PM55.9 °F19.9 °F25 %30.04 in10.0 miWNW (290°)3.5 mphClear
9:51 PM55.9 °F23.0 °F28 %30.06 in10.0 miWSW (250°)4.6 mphClear
10:51 PM55.0 °F23.0 °F29 %30.07 in10.0 miCalmClear
11:51 PM54.0 °F28.0 °F37 %30.07 in10.0 miVariable3.5 mphClear
Hourly data recorded from KNYC, located miles away from New York - Central Park, New York







STORIES FROM OUR PARTNERS